Weather History for Leadville, CO

Change the Weather History Date:

Tuesday, May 28, 2013

  Actual Average Record
Temperature  
Mean Temperature 44 °F -  
Max Temperature 60 °F 59 °F 73 °F (2003)
Min Temperature 27 °F 30 °F 21 °F (1987)
Degree Days  
Heating Degree Days 21 21  
Month to date heating degree days 712 692  
Since 1 July heating degree days 10682 10693  
Cooling Degree Days 0 0  
Month to date cooling degree days 0 0  
Year to date cooling degree days 0 0  
Moisture  
Dew Point 17 °F    
Average Humidity 42    
Maximum Humidity 69    
Minimum Humidity 14    
Precipitation  
Precipitation 0.00 in 0.02 in 0.06 in (1993)
Month to date precipitation 1.67 0.72  
Year to date precipitation 7.18 4.05  
Sea Level Pressure  
Sea Level Pressure 29.60 in    
Wind  
Wind Speed 8 mph (SSW)    
Max Wind Speed 24 mph    
Max Gust Speed 35 mph    
Visibility 10 miles    
Events      
T = Trace of Precipitation, MM = Missing Value Source: NWS Daily Summary

Daily Weather History Graph

Daily Weather History Graph

Search for Another Location

Airport:

Trip Planner

Search our weather history database for the weather conditions in past years. The results will help you decide how hot, cold, wet, or windy it might be!

Date:

Astronomy

May. 28, 2013 Rise Set
Actual Time 5:42 AM MDT 8:23 PM MDT
Civil Twilight 5:11 AM MDT 8:54 PM MDT
Nautical Twilight 4:32 AM MDT 9:33 PM MDT
Astronomical Twilight 3:47 AM MDT 10:18 PM MDT
Moon 11:49 PM MDT (5/28) 9:33 AM MDT (5/28)
Length of Visible Light 15h 43m
Length of Day
14h 40m
Waning Gibbous, 82% of the Moon is Illuminated
May 28
Waning Gibbous
May 31
Last Quarter
Jun 8
New
Jun 16
First Quarter
Jun 23
Full

Hourly Weather History & Observations

Time (MDT) Temp. Windchill Dew Point Humidity Pressure Visibility Wind Dir Wind Speed Gust Speed Precip Events Conditions
12:53 AM 34.0 °F - 21.0 °F 59% 29.71 in 10.0 mi Calm Calm - N/A   Clear
1:53 AM 36.0 °F 33.3 °F 18.0 °F 48% 29.68 in 10.0 mi North 3.5 mph - N/A   Clear
2:53 AM 30.9 °F - 19.9 °F 64% 29.70 in 10.0 mi Calm Calm - N/A   Clear
3:53 AM 33.1 °F - 18.0 °F 54% 29.67 in 10.0 mi Calm Calm - N/A   Clear
4:53 AM 28.0 °F - 19.0 °F 69% 29.69 in 10.0 mi Calm Calm - N/A   Clear
5:53 AM 28.9 °F - 19.9 °F 69% 29.69 in 10.0 mi Calm Calm - N/A   Clear
6:53 AM 34.0 °F - 21.9 °F 61% 29.68 in 10.0 mi Calm Calm - N/A   Clear
7:53 AM 39.0 °F - 19.9 °F 46% 29.66 in 10.0 mi Calm Calm - N/A   Clear
8:53 AM 45.0 °F 40.6 °F 18.0 °F 34% 29.65 in 10.0 mi South 8.1 mph - N/A   Clear
9:53 AM 48.0 °F - 18.0 °F 30% 29.66 in 10.0 mi SSW 9.2 mph - N/A   Clear
10:53 AM 55.0 °F - 12.0 °F 18% 29.59 in 10.0 mi South 16.1 mph 21.9 mph N/A   Clear
11:53 AM 55.0 °F - 12.0 °F 18% 29.58 in 10.0 mi South 10.4 mph 21.9 mph N/A   Scattered Clouds
12:53 PM 55.9 °F - 9.0 °F 15% 29.58 in 10.0 mi SSW 18.4 mph 24.2 mph N/A   Partly Cloudy
1:53 PM 57.0 °F - 9.0 °F 15% 29.54 in 10.0 mi SW 11.5 mph 28.8 mph N/A   Clear
2:53 PM 57.9 °F - 9.0 °F 14% 29.55 in 10.0 mi SSW 13.8 mph 24.2 mph N/A   Scattered Clouds
3:53 PM 57.0 °F - 9.0 °F 15% 29.52 in 10.0 mi SSW 11.5 mph 23.0 mph N/A   Mostly Cloudy
4:53 PM 57.0 °F - 10.0 °F 15% 29.53 in 10.0 mi South 17.3 mph 28.8 mph N/A   Mostly Cloudy
5:53 PM 57.0 °F - 15.1 °F 19% 29.53 in 10.0 mi SW 11.5 mph 19.6 mph N/A   Mostly Cloudy
6:53 PM 54.0 °F - 17.1 °F 23% 29.52 in 10.0 mi WSW 16.1 mph 21.9 mph N/A   Clear
7:53 PM 50.0 °F - 21.9 °F 33% 29.54 in 10.0 mi WNW 9.2 mph - N/A   Scattered Clouds
8:53 PM 46.9 °F - 21.9 °F 37% 29.53 in 10.0 mi Calm Calm - N/A   Mostly Cloudy
9:53 PM 42.1 °F 39.2 °F 23.0 °F 47% 29.55 in 10.0 mi NE 4.6 mph - N/A   Mostly Cloudy
10:53 PM 39.0 °F 34.0 °F 21.9 °F 50% 29.51 in 10.0 mi ENE 6.9 mph - N/A   Clear
11:53 PM 39.9 °F 35.8 °F 21.0 °F 47% 29.47 in 10.0 mi North 5.8 mph - N/A   Clear